Skip Page Navigation
NASA JPL Caltech
NASA Logo - Jet Propulsion Laboratory + View the NASA Portal
+ Center for Near-Earth Object Studies
JPL Home Earth Solar System Stars & Galaxies Technology
JPL Solar System Dynamics
BODIES ORBITS EPHEMERIDES TOOLS PHYSICAL DATA DISCOVERY FAQ SITE MAP
JPL Small-Body Database Browser
Search: [ help ]  
362551 (2010 UX71)
Classification: Main-belt Asteroid          SPK-ID: 2362551
Ephemeris | Orbit Diagram | Orbital Elements | Mission Design | Physical Parameters | Discovery Circumstances | Close-Approach Data ]

[ show orbit diagram ]
Orbital Elements at Epoch 2459200.5 (2020-Dec-17.0) TDB
Reference: JPL 14 (heliocentric ecliptic J2000)
 Element Value Uncertainty (1-sigma)   Units 
e .05331018122444204 5.7209e-08  
a 3.178692282807424 5.6831e-08 au
q 3.009235621154224 2.0027e-07 au
i 10.74721015299242 6.2003e-06 deg
node 8.152797528767081 3.4757e-05 deg
peri 60.73767569653474 8.2163e-05 deg
M 250.1897909855878 8.0514e-05 deg
tp 2459831.909883432332
(2022-Sep-09.40988343)
0.00047305 TDB
period 2070.003873736423
5.67
5.5513e-05
1.52e-07
d
yr
n .1739127180231738 4.664e-09 deg/d
Q 3.348148944460623 5.986e-08 au
  Orbit Determination Parameters
   # obs. used (total)      161  
   data-arc span      5810 days (15.91 yr)  
   first obs. used      2004-09-11  
   last obs. used      2020-08-08  
   planetary ephem.      DE441  
   SB-pert. ephem.      SB441-N16  
   condition code      0  
   norm. resid. RMS      .61878  
   source      ORB  
   producer      Otto Matic  
   solution date      2021-Apr-14 09:39:54  

Additional Information
 Earth MOID = 2.03829 au 
 Jupiter MOID = 1.83888 au 
 T_jup = 3.171 
[ show covariance matrix ]

Ephemeris | Orbit Diagram | Orbital Elements | Mission Design | Physical Parameters | Discovery Circumstances | Close-Approach Data ]

Physical Parameter Table
Parameter Symbol Value Units Sigma Reference Notes
absolute magnitude H 16.20   n/a E2021B25  

362551 (2010 UX71)          Discovered 2007-Feb-23 by Spacewatch at Kitt Peak
Reference: Last Updated: 2013-04-29

[ show close-approach data ]
Ephemeris | Orbit Diagram | Orbital Elements | Mission Design | Physical Parameters | Discovery Circumstances | Close-Approach Data ]
ABOUT SSD CREDITS/AWARDS PRIVACY/COPYRIGHT GLOSSARY LINKS
FirstGov 2021-Jun-23 00:30 UT
(server date/time)  
NASA Home Page
Site Manager:   Ryan S. Park
Webmaster  Alan B. Chamberlin